Location: Unspecified
(0.0000°N, 0.0000°E)
Time: 13:49:00
(UTC+02:00)

Milstar 3 - Visible Passes

Search period start: 27 May 2015 00:00
Search period end: 06 June 2015 00:00
Orbit: 1100 x 5146 km, 28.2° (Epoch: 02 April)

Date Brightness Start Highest point End Pass type
(mag) Time Alt. Az. Time Alt. Az. Time Alt. Az.
27 May 6.1 02:27:53 16° E 02:27:53 16° E 02:31:38 10° E visible
27 May 4.5 05:01:27 70° W 05:04:20 83° NNW 05:31:29 10° ENE visible
28 May 4.8 04:03:34 67° E 04:03:34 67° E 04:23:48 10° ENE visible
28 May 5.6 06:37:09 18° W 06:52:09 52° NNW 07:22:02 10° NE visible
29 May 5.5 03:05:40 33° E 03:05:40 33° E 03:16:12 10° ENE visible
29 May 4.9 05:39:14 41° W 05:46:29 62° NNW 06:14:28 10° NE visible
29 May 5.1 20:18:49 10° SW 20:21:11 11° SSW 20:22:55 10° S visible
30 May 6.3 02:07:45 12° E 02:07:45 12° E 02:08:50 10° E visible
30 May 4.5 04:41:19 75° NW 04:42:05 76° NNW 05:06:59 10° NE visible
30 May 6.0 07:17:18 10° W 07:36:22 41° NNW 08:05:32 10° NE visible
31 May 4.9 03:43:22 56° ENE 03:43:22 56° ENE 03:59:43 10° ENE visible
31 May 5.5 06:16:57 20° W 06:29:37 47° NNW 06:57:35 10° NE visible
01 Jun 5.7 02:45:25 27° ENE 02:45:25 27° ENE 02:52:48 10° ENE visible
01 Jun 4.9 05:18:59 44° WNW 05:24:14 55° NNW 05:49:51 10° NE visible
02 Jun 4.6 04:21:01 67° N 04:21:01 67° N 04:42:33 10° NE visible
02 Jun 5.9 06:56:22 10° WNW 07:13:49 38° N 07:41:29 10° NE visible
03 Jun 5.1 03:23:03 45° ENE 03:23:03 45° ENE 03:35:48 10° ENE visible
03 Jun 5.4 05:56:37 22° WNW 06:07:22 42° NNW 06:33:04 10° NE visible
04 Jun 5.9 02:25:04 20° ENE 02:25:04 20° ENE 02:29:35 10° ENE visible
04 Jun 4.9 04:58:37 44° NW 05:02:15 49° NNW 05:25:17 10° NE visible
05 Jun 4.8 04:00:37 55° N 04:00:37 55° N 04:18:18 10° NE visible
05 Jun 5.9 06:35:35 10° WNW 06:51:30 34° N 07:17:22 10° NE visible
